Location: Kellogg
(38.0159°N, 90.0546°W)
Time: 08:01:14
(UTC+00:00)

Vanguard 1 Rocket - Pass Details

Date: 17 September 2024
Orbit: 650 x 4218 km, 34.3° (Epoch: 05 October)

Event Time Altitude Azimuth Distance (km) Brightness Sun altitude
Rises 15:03:23 0° 286° (WNW) 7,523 11.6 36.8°
Reaches altitude 10° 15:08:13 10° 281° (WNW) 6,825 11.5 37.6°
Maximum altitude 15:31:18 50° 216° (SW) 4,855 11.6 41.2°
Drops below altitude 10° 15:52:56 10° 148° (SSE) 6,390 12.7 44.4°
Sets 15:57:20 0° 143° (SE) 7,032 12.7 45.0°
